Overview Statistics Trail Chart Weather Telemetry Raw packets
 

This is the latest recevied weather packets stored in our database for station/object SV7GBF-2. If no packets are shown the sender has not sent any weather packets the latest 10 day(s).

<< 16 17 18 19 20 21 22 >>
Time Temp. Humidity Pressure Rain* Wind** Luminosity Snow
1788334446 26.67° C 62% 1018 hPa - - - -
1788333843 26.11° C 61% 1018 hPa - - - -
1788333244 26.11° C 61% 1018 hPa - - - -
1788332646 26.11° C 60% 1017 hPa - - - -
1788332043 26.67° C 58% 1017 hPa - - - -
1788331448 26.11° C 55% 1017 hPa - - - -
1788330247 26.11° C 57% 1017 hPa - - - -
1788329647 26.11° C 60% 1017 hPa - - - -
1788329044 25.56° C 60% 1017 hPa - - - -
1788327844 25° C 62% 1017 hPa - - - -
1788327244 24.44° C 56% 1017 hPa - - - -
1788326644 23.89° C 52% 1017 hPa - - - -
1788326044 22.78° C 51% 1017 hPa - - - -
1788325443 22.78° C 51% 1017 hPa - - - -
1788324843 22.22° C 51% 1017 hPa - - - -
1788324244 22.22° C 50% 1017 hPa - - - -
1788323643 22.22° C 51% 1017 hPa - - - -
1788323044 22.78° C 49% 1017 hPa - - - -
1788322445 22.78° C 51% 1017 hPa - - - -
1788321844 22.78° C 50% 1017 hPa - - - -
1788321243 22.78° C 50% 1017 hPa - - - -
1788320645 22.22° C 49% 1017 hPa - - - -
1788320044 22.22° C 50% 1017 hPa - - - -
1788319443 22.22° C 49% 1017 hPa - - - -
1788318844 22.22° C 50% 1017 hPa - - - -

* Rain since midnight (hover to see other rain measurements)
** Current wind speed in m/s (hover to see current wind gust speed)